TJS-24

导读

TJS-24(NORAD编号69235)是中国于2026年5月27日在文昌航天发射场通过长征七号改运载火箭发射的卫星,被送入地球同步转移轨道。 官方表述其为通信技术试验卫星,西方分析认为该卫星属于中国导弹预警卫星体系,可承担接近操作、信号情报收集等任务。军事分析指出它的入轨标志着中国完成洲际弹道导弹预警卫星星座组网,其搭载先进红外探测系统,可快速捕捉导弹尾焰并回传轨迹数据,配合地面雷达构建起全覆盖的战略预警体系。

基本信息
目录编号:
69235
目录名称:
TJS-24
国际标识:
2026-116A
轨道中心:
EARTH
卫星名称:
TJS-24
卫星全名:
TJS-24
卫星状态:
在轨 (已飞行102 天)
发射日期:
2026-05-26 UTC
国别 :
中国 (CN)
星等 :
--
轨道信息
数据来源 国际轨道数据 AOE轨道数据
星历时间 2026-09-05T10:20:39+0800
7小时前
查看轨道信息
2026-09-05T02:00:00+0800
16小时前
查看轨道信息
半长轴 42164.812km 42164.7km
偏心率 0.0001431 0.0001453
轨道倾角 0.208° 0.207°
近地点辐角 161.099° 158.749°
升交点赤经 89.516° 89.544°
平近点角 219.097° 95.916°
近地点 35780.641km 35780.436km
远地点 35792.709km 35792.69km
周期 1436.101分钟 1436.095分钟
每日圈数 1.002715 1.002719
详细信息
使用方式:
暂无
2D轨道图
3D轨道图
轨道高度分析图
轨道倾角分析图
轨道综合分析图
查看轨道综合分析图